Group_ship,Cruise,JD_GMT,Date_DDMMYYYY,TIME_HH:MM:SS,Lat_dec_degree,Long_dec_degree,xCO2eq_ppm,xCO2a_ppm,Pres_Equi_hPa,Pres_sealevel_hPa,EqTemp_C,SST(TSG)_C,Sal(TSG)_Permil,Water_flow_l/min,Gasflow_IR_ml/min,Temp_IR_C,Pres_IR_hPa,Ship_heading_true_degree,Ship_speed_knot,Wind_dir_rel_degree,Wind_speed_rel_m/s,fCO2W@SST_uatm,Qcflag_water,fCO2a_uatm,Qcflag_air,dfCO2_uatm,Fluoro_ug/l,Wind_speed_true_m/s,Wind_dir_true_degree,Air_temp_C,Oxygen
AOML_Explorer,Ex0722B,146.017,26052007,0:24:13,40.101,-73.474,374.39,-9.00,1018.62,1017.60,15.85,15.02,31.236,0.966,99.775,31.132,1018.621,143.700,19.500,54.000,23.162,356.15,2,-9.00,9,-9.00,0.23,19.60,226.32,17.97,294.46
AOML_Explorer,Ex0722B,146.019,26052007,0:26:46,40.090,-73.463,381.45,-9.00,1018.57,1017.60,15.81,14.92,31.356,0.991,100.006,31.126,1018.567,143.600,19.500,56.000,22.647,361.91,2,-9.00,9,-9.00,0.22,19.51,229.14,17.9,294.20
AOML_Explorer,Ex0722B,146.020,26052007,0:29:19,40.078,-73.452,387.86,-9.00,1018.50,1017.50,15.76,15.03,31.374,1.017,99.899,31.125,1018.501,143.400,19.600,59.000,22.647,370.39,2,-9.00,9,-9.00,0.22,20.04,232.04,17.8,293.35
AOML_Explorer,Ex0722B,146.022,26052007,0:31:52,40.067,-73.442,393.42,-9.00,1018.51,1017.60,15.70,15.05,31.450,0.967,99.693,31.127,1018.506,143.900,19.600,57.000,21.617,376.99,2,-9.00,9,-9.00,0.23,18.74,231.55,17.74,293.32
AOML_Explorer,Ex0722B,146.024,26052007,0:34:25,40.056,-73.431,396.52,-9.00,1018.74,1017.90,15.77,14.18,31.605,0.953,99.837,31.131,1018.744,143.800,19.500,56.000,21.617,365.54,2,-9.00,9,-9.00,0.34,18.52,230.53,17.66,295.62
AOML_Explorer,Ex0722B,146.026,26052007,0:36:58,40.045,-73.420,397.62,-9.00,1018.80,1017.10,15.80,14.18,31.398,1.020,99.651,31.138,1018.805,137.900,19.500,63.000,21.103,366.27,2,-9.00,9,-9.00,0.46,19.21,231.37,17.57,293.90
AOML_Explorer,Ex0722B,146.027,26052007,0:39:31,40.035,-73.408,393.47,-9.00,1018.79,1017.10,15.32,14.45,31.490,0.980,99.444,31.142,1018.787,135.800,19.700,61.000,20.588,373.89,2,-9.00,9,-9.00,0.40,18.51,229.34,17.57,292.69
AOML_Explorer,Ex0722B,146.029,26052007,0:42:04,40.025,-73.395,380.56,-9.00,1018.50,1017.20,15.14,14.43,31.494,0.988,99.645,31.147,1018.505,136.100,19.800,61.000,20.588,364.08,2,-9.00,9,-9.00,0.37,18.49,229.65,17.58,292.90
AOML_Explorer,Ex0722B,146.031,26052007,0:44:37,40.015,-73.382,376.47,-9.00,1018.80,1017.30,15.27,14.58,31.497,0.894,99.724,31.150,1018.803,130.900,20.000,65.000,20.073,360.39,2,-9.00,9,-9.00,0.36,18.69,228.27,17.56,292.32
AOML_Explorer,Ex0722B,146.033,26052007,0:47:10,40.006,-73.367,376.63,-9.00,1018.91,1017.20,15.30,14.65,31.482,0.906,99.691,31.153,1018.915,127.000,20.100,65.000,19.044,361.23,2,-9.00,9,-9.00,0.39,17.78,226.74,17.57,292.46
AOML_Explorer,Ex0722B,146.035,26052007,0:49:43,39.998,-73.352,377.36,-9.00,1019.13,1017.10,15.39,14.63,31.436,0.984,99.697,31.157,1019.130,124.500,20.100,67.000,18.529,360.30,2,-9.00,9,-9.00,0.37,17.70,226.87,17.51,292.31
AOML_Explorer,Ex0722B,146.036,26052007,0:52:16,39.990,-73.337,377.88,-9.00,1019.00,1017.20,15.46,14.56,31.427,1.007,99.564,31.155,1019.000,125.200,20.100,69.000,18.015,358.67,2,-9.00,9,-9.00,0.40,17.58,230.01,17.44,292.51
AOML_Explorer,Ex0722B,146.038,26052007,0:54:49,39.982,-73.322,377.08,-9.00,1018.96,1017.10,15.43,14.52,31.233,1.028,99.584,31.160,1018.959,125.100,20.100,65.000,18.015,357.81,2,-9.00,9,-9.00,0.43,16.93,226.12,17.35,293.43
AOML_Explorer,Ex0722B,146.040,26052007,0:57:22,39.974,-73.306,375.95,-9.00,1019.07,1017.20,15.41,14.34,31.209,0.995,99.604,31.164,1019.071,123.200,20.100,66.000,17.500,354.39,2,-9.00,9,-9.00,0.42,16.58,226.22,17.27,294.16
AOML_Explorer,Ex0722B,146.042,26052007,0:59:55,39.966,-73.291,371.84,-9.00,1019.14,1017.20,15.31,14.45,31.186,1.022,99.582,31.164,1019.141,123.300,20.200,74.000,17.500,353.74,2,-9.00,9,-9.00,0.39,17.98,233.01,17.24,294.03
AOML_Explorer,Ex0722B,146.057,26052007,1:21:40,39.888,-73.168,377.54,-9.00,1019.50,1017.70,15.23,14.37,31.553,1.002,100.394,31.237,1019.501,134.400,20.200,65.000,19.044,359.08,2,-9.00,9,-9.00,0.26,17.70,233.86,17.09,292.09
AOML_Explorer,Ex0722B,146.058,26052007,1:24:13,39.878,-73.155,379.96,-9.00,1019.40,1017.50,15.21,14.36,31.558,1.016,100.097,31.239,1019.403,134.400,20.300,66.000,18.529,361.62,2,-9.00,9,-9.00,0.25,17.38,235.58,17.07,291.93
AOML_Explorer,Ex0722B,146.060,26052007,1:26:46,39.868,-73.141,381.96,-9.00,1019.43,1017.70,15.20,14.34,31.597,0.998,100.186,31.241,1019.432,130.500,20.300,72.000,18.015,363.33,2,-9.00,9,-9.00,0.23,18.02,237.15,17.11,291.57
AOML_Explorer,Ex0722B,146.062,26052007,1:29:19,39.859,-73.127,383.70,-9.00,1019.58,1017.50,15.19,14.32,31.622,1.037,100.176,31.240,1019.584,128.500,20.300,72.000,16.985,364.97,2,-9.00,9,-9.00,0.23,17.11,237.28,17.09,291.71
AOML_Explorer,Ex0722B,146.064,26052007,1:31:52,39.850,-73.112,385.61,-9.00,1019.68,1017.70,15.17,14.25,31.657,1.005,100.090,31.240,1019.684,128.800,20.200,67.000,16.470,366.02,2,-9.00,9,-9.00,0.21,15.83,234.33,17.05,291.45
AOML_Explorer,Ex0722B,146.066,26052007,1:34:25,39.841,-73.098,387.72,-9.00,1019.53,1017.80,15.14,14.09,31.727,0.958,100.055,31.237,1019.528,131.600,20.200,63.000,18.529,366.04,2,-9.00,9,-9.00,0.20,16.82,229.43,16.96,291.53
AOML_Explorer,Ex0722B,146.067,26052007,1:36:58,39.832,-73.084,390.09,-9.00,1019.59,1017.70,15.09,14.02,31.640,0.955,100.168,31.236,1019.595,131.000,20.100,65.000,18.015,367.95,2,-9.00,9,-9.00,0.19,16.79,231.63,16.91,291.36
AOML_Explorer,Ex0722B,146.069,26052007,1:39:31,39.822,-73.070,392.86,-9.00,1019.75,1017.90,15.00,14.09,31.675,0.923,100.046,31.235,1019.751,135.200,20.100,68.000,18.529,373.16,2,-9.00,9,-9.00,0.19,17.74,238.30,16.85,290.88
AOML_Explorer,Ex0722B,146.071,26052007,1:42:04,39.811,-73.058,396.36,-9.00,1019.79,1018.10,14.90,14.08,31.721,0.953,100.006,31.232,1019.791,143.000,20.000,61.000,20.073,378.02,2,-9.00,9,-9.00,0.18,17.87,236.76,16.85,291.12
AOML_Explorer,Ex0722B,146.073,26052007,1:44:37,39.800,-73.047,398.87,-9.00,1019.79,1018.10,14.93,14.06,31.814,0.964,100.079,31.229,1019.793,143.300,20.100,63.000,19.559,379.59,2,-9.00,9,-9.00,0.17,17.75,239.49,16.86,291.46
AOML_Explorer,Ex0722B,146.074,26052007,1:47:10,39.788,-73.036,400.65,-9.00,1019.70,1018.10,14.94,14.07,31.884,0.976,99.887,31.228,1019.700,143.400,19.900,61.000,19.559,381.17,2,-9.00,9,-9.00,0.17,17.42,237.73,16.85,290.91
AOML_Explorer,Ex0722B,146.076,26052007,1:49:43,39.777,-73.025,402.22,-9.00,1019.67,1018.20,14.94,14.20,31.917,0.961,99.926,31.223,1019.669,143.200,20.100,59.000,19.559,384.68,2,-9.00,9,-9.00,0.16,17.09,235.79,16.87,290.05
AOML_Explorer,Ex0722B,146.078,26052007,1:52:16,39.766,-73.014,403.18,-9.00,1019.94,1018.30,14.92,14.29,32.030,0.960,99.929,31.219,1019.942,143.500,19.800,60.000,19.559,387.56,2,-9.00,9,-9.00,0.15,17.24,236.62,16.84,289.73
AOML_Explorer,Ex0722B,146.080,26052007,1:54:49,39.754,-73.003,403.85,-9.00,1019.66,1018.30,14.99,14.26,32.217,0.954,99.992,31.216,1019.656,143.500,19.800,62.000,20.073,386.55,2,-9.00,9,-9.00,0.14,18.02,237.51,16.79,289.30
AOML_Explorer,Ex0722B,146.082,26052007,1:57:22,39.743,-72.993,405.65,-9.00,1019.83,1018.20,15.08,14.02,32.431,1.005,99.929,31.210,1019.828,143.300,19.800,64.000,20.073,382.91,2,-9.00,9,-9.00,0.14,18.37,239.18,16.77,289.87
AOML_Explorer,Ex0722B,146.083,26052007,1:59:55,39.732,-72.982,407.71,-9.00,1019.85,1018.40,15.12,13.65,32.457,0.936,99.947,31.206,1019.851,143.600,19.900,63.000,20.073,378.39,2,-9.00,9,-9.00,0.14,18.14,238.26,16.7,290.58
AOML_Explorer,Ex0722B,146.098,26052007,2:21:40,39.646,-72.874,396.03,-9.00,1020.30,1018.30,14.17,13.24,32.793,0.870,100.656,31.233,1020.296,135.100,19.900,66.000,16.985,376.35,2,-9.00,9,-9.00,0.10,16.05,237.79,15.97,291.86
AOML_Explorer,Ex0722B,146.100,26052007,2:24:13,39.636,-72.861,396.25,-9.00,1020.19,1018.30,14.26,13.26,32.843,0.861,100.846,31.233,1020.186,134.900,19.900,63.000,17.500,375.47,2,-9.00,9,-9.00,0.09,15.96,234.01,15.92,291.94
AOML_Explorer,Ex0722B,146.102,26052007,2:26:46,39.626,-72.848,396.98,-9.00,1020.30,1018.30,14.27,13.23,32.877,0.832,100.517,31.231,1020.303,135.100,20.000,65.000,16.985,375.63,2,-9.00,9,-9.00,0.09,15.91,237.14,15.88,292.48
AOML_Explorer,Ex0722B,146.104,26052007,2:29:19,39.616,-72.835,397.30,-9.00,1020.00,1018.20,14.28,13.18,32.906,0.987,100.318,31.230,1019.998,134.700,20.100,68.000,17.500,374.76,2,-9.00,9,-9.00,0.10,16.85,238.60,15.83,293.01
AOML_Explorer,Ex0722B,146.105,26052007,2:31:52,39.606,-72.822,397.65,-9.00,1020.25,1018.30,14.23,13.11,32.953,0.949,100.413,31.226,1020.254,134.600,20.000,64.000,17.500,374.95,2,-9.00,9,-9.00,0.08,16.21,235.10,15.79,292.83
AOML_Explorer,Ex0722B,146.107,26052007,2:34:25,39.596,-72.809,396.51,-9.00,1020.14,1018.30,14.20,12.94,32.963,0.944,100.561,31.222,1020.137,131.900,20.100,64.000,18.015,371.62,2,-9.00,9,-9.00,0.09,16.59,231.02,15.77,292.81
AOML_Explorer,Ex0722B,146.109,26052007,2:36:58,39.587,-72.795,395.75,-9.00,1020.23,1018.20,14.16,12.88,32.939,0.977,100.445,31.218,1020.227,130.600,20.100,68.000,16.985,370.72,2,-9.00,9,-9.00,0.10,16.50,235.95,15.74,291.33
AOML_Explorer,Ex0722B,146.111,26052007,2:39:31,39.578,-72.781,394.71,-9.00,1020.30,1018.30,14.00,12.85,32.930,0.976,100.419,31.210,1020.303,130.400,20.300,68.000,16.985,371.92,2,-9.00,9,-9.00,0.11,16.53,235.83,15.75,291.70
AOML_Explorer,Ex0722B,146.113,26052007,2:42:04,39.569,-72.767,393.99,-9.00,1020.22,1018.20,13.92,12.94,32.892,0.932,100.317,31.203,1020.218,130.500,20.300,71.000,16.985,373.70,2,-9.00,9,-9.00,0.12,17.04,238.33,15.69,292.08
AOML_Explorer,Ex0722B,146.114,26052007,2:44:37,39.559,-72.753,394.41,-9.00,1020.08,1018.30,13.90,12.99,32.865,0.941,100.336,31.197,1020.077,130.700,20.300,72.000,16.985,375.15,2,-9.00,9,-9.00,0.11,17.20,239.37,15.66,292.20
AOML_Explorer,Ex0722B,146.116,26052007,2:47:10,39.550,-72.739,393.56,-9.00,1020.22,1018.30,13.92,13.05,32.871,0.968,100.330,31.191,1020.221,130.700,20.300,72.000,16.470,375.12,2,-9.00,9,-9.00,0.12,16.75,240.25,15.66,292.24
AOML_Explorer,Ex0722B,146.118,26052007,2:49:43,39.541,-72.725,392.74,-9.00,1020.09,1018.10,13.96,13.02,32.889,0.964,100.449,31.185,1020.089,130.900,20.400,74.000,15.956,373.19,2,-9.00,9,-9.00,0.12,16.65,243.08,15.66,292.37
AOML_Explorer,Ex0722B,146.120,26052007,2:52:16,39.531,-72.711,393.05,-9.00,1020.41,1018.10,14.01,13.09,32.878,0.961,100.584,31.179,1020.407,131.000,20.300,74.000,15.441,373.73,2,-9.00,9,-9.00,0.12,16.19,244.03,15.67,291.90
AOML_Explorer,Ex0722B,146.121,26052007,2:54:49,39.522,-72.697,393.26,-9.00,1020.46,1018.20,14.01,13.14,32.838,1.011,100.311,31.171,1020.463,130.800,20.300,73.000,15.441,374.70,2,-9.00,9,-9.00,0.11,16.04,243.04,15.61,292.15
AOML_Explorer,Ex0722B,146.123,26052007,2:57:22,39.513,-72.683,393.76,-9.00,1020.50,1018.30,14.06,12.96,32.864,0.929,100.471,31.165,1020.496,130.900,20.200,67.000,15.956,371.62,2,-9.00,9,-9.00,0.11,15.41,237.32,15.5,293.18
AOML_Explorer,Ex0722B,146.125,26052007,2:59:55,39.503,-72.669,394.00,-9.00,1020.49,1018.40,14.09,12.90,32.837,0.884,100.356,31.159,1020.490,130.800,20.300,70.000,15.441,370.58,2,-9.00,9,-9.00,0.12,15.57,240.90,15.38,294.51
AOML_Explorer,Ex0722B,146.140,26052007,3:21:40,39.419,-72.553,388.79,-9.00,1020.97,1018.30,13.75,11.81,32.844,0.980,100.877,31.171,1020.973,134.700,20.300,77.000,14.412,354.78,2,-9.00,9,-9.00,0.13,15.77,251.58,14.71,301.54
AOML_Explorer,Ex0722B,146.142,26052007,3:24:13,39.409,-72.540,387.01,-9.00,1020.70,1018.30,13.54,12.08,32.806,0.903,100.917,31.170,1020.697,134.600,20.400,75.000,14.412,360.16,2,-9.00,9,-9.00,0.12,15.50,250.45,14.6,300.66
AOML_Explorer,Ex0722B,146.144,26052007,3:26:46,39.399,-72.527,382.94,-9.00,1020.63,1018.30,13.20,11.88,32.826,0.964,100.734,31.166,1020.634,135.100,20.500,76.000,14.926,358.62,2,-9.00,9,-9.00,0.13,16.08,250.65,14.49,303.12
AOML_Explorer,Ex0722B,146.145,26052007,3:29:19,39.389,-72.513,379.27,-9.00,1020.59,1018.20,13.25,11.85,32.762,0.971,100.843,31.161,1020.593,134.700,20.600,76.000,14.926,353.96,2,-9.00,9,-9.00,0.12,16.12,250.87,14.42,303.74
AOML_Explorer,Ex0722B,146.147,26052007,3:31:52,39.378,-72.500,377.91,-9.00,1020.39,1018.30,13.20,11.78,32.746,0.925,100.924,31.153,1020.391,135.500,20.600,77.000,14.926,352.29,2,-9.00,9,-9.00,0.13,16.22,251.73,14.41,304.59
AOML_Explorer,Ex0722B,146.149,26052007,3:34:25,39.368,-72.487,376.08,-9.00,1020.48,1018.20,13.12,11.72,32.746,0.910,100.615,31.148,1020.476,135.300,20.600,73.000,14.412,351.01,2,-9.00,9,-9.00,0.12,15.05,249.72,14.39,305.23
AOML_Explorer,Ex0722B,146.151,26052007,3:36:58,39.358,-72.474,374.22,-9.00,1020.71,1018.30,13.06,11.59,32.750,0.960,100.801,31.140,1020.707,135.900,20.500,75.000,14.926,348.30,2,-9.00,9,-9.00,0.13,15.80,250.25,14.35,306.55
AOML_Explorer,Ex0722B,146.152,26052007,3:39:31,39.347,-72.461,372.58,-9.00,1020.52,1018.50,13.01,11.54,32.705,0.924,100.805,31.132,1020.515,135.600,20.500,73.000,15.956,346.59,2,-9.00,9,-9.00,0.12,16.21,246.28,14.31,306.89
AOML_Explorer,Ex0722B,146.154,26052007,3:42:04,39.337,-72.448,371.26,-9.00,1020.56,1018.50,12.92,11.50,32.702,0.910,100.844,31.122,1020.563,135.000,20.600,67.000,15.956,346.11,2,-9.00,9,-9.00,0.13,15.27,241.40,14.21,306.93
AOML_Explorer,Ex0722B,146.156,26052007,3:44:37,39.326,-72.435,369.56,-9.00,1020.60,1018.60,12.85,11.47,32.694,0.934,100.794,31.112,1020.603,135.400,20.700,73.000,15.956,345.23,2,-9.00,9,-9.00,0.13,16.27,246.54,14.12,307.43
AOML_Explorer,Ex0722B,146.158,26052007,3:47:10,39.316,-72.421,368.50,-9.00,1020.55,1018.60,12.82,11.49,32.649,0.946,100.703,31.101,1020.549,135.100,20.600,68.000,15.956,344.98,2,-9.00,9,-9.00,0.12,15.41,242.30,14.02,307.45
AOML_Explorer,Ex0722B,146.160,26052007,3:49:43,39.306,-72.408,367.70,-9.00,1020.35,1018.50,12.78,11.58,32.630,0.903,100.687,31.091,1020.350,135.000,20.600,70.000,15.956,346.06,2,-9.00,9,-9.00,0.12,15.80,243.69,13.91,307.04
AOML_Explorer,Ex0722B,146.161,26052007,3:52:16,39.295,-72.395,367.59,-9.00,1020.56,1018.50,12.76,11.62,32.637,0.895,100.787,31.084,1020.562,134.500,20.700,71.000,15.956,346.83,2,-9.00,9,-9.00,0.13,16.08,244.48,13.83,307.12
AOML_Explorer,Ex0722B,146.163,26052007,3:54:49,39.285,-72.382,368.75,-9.00,1020.29,1018.40,12.81,11.55,32.646,0.966,100.768,31.075,1020.292,134.400,20.400,76.000,15.441,346.06,2,-9.00,9,-9.00,0.12,16.56,249.19,13.84,307.57
AOML_Explorer,Ex0722B,146.165,26052007,3:57:22,39.275,-72.368,370.46,-9.00,1020.49,1018.40,12.84,11.07,32.793,0.879,100.828,31.065,1020.494,133.500,20.500,78.000,14.926,340.54,2,-9.00,9,-9.00,0.14,16.56,251.46,13.82,310.22
AOML_Explorer,Ex0722B,146.167,26052007,3:59:55,39.265,-72.355,371.58,-9.00,1020.62,1018.50,12.84,11.05,32.575,0.911,100.906,31.054,1020.622,134.100,20.500,72.000,15.441,341.33,2,-9.00,9,-9.00,0.13,15.93,246.28,13.84,310.81
AOML_Explorer,Ex0722B,146.182,26052007,4:21:40,39.181,-72.237,361.03,-9.00,1020.81,1018.40,14.19,14.07,33.242,0.886,101.027,31.047,1020.812,133.100,20.700,77.000,14.412,354.99,2,-9.00,9,-9.00,0.17,16.42,253.61,15.21,293.70
AOML_Explorer,Ex0722B,146.183,26052007,4:24:13,39.171,-72.224,361.31,-9.00,1020.48,1018.20,14.39,14.31,33.415,0.860,100.988,31.042,1020.485,133.600,20.700,74.000,13.897,355.74,2,-9.00,9,-9.00,0.15,15.52,252.66,15.43,290.86
AOML_Explorer,Ex0722B,146.185,26052007,4:26:46,39.161,-72.210,362.00,-9.00,1020.71,1018.20,14.57,14.90,33.558,0.828,100.978,31.037,1020.711,133.600,20.600,79.000,12.868,362.50,2,-9.00,9,-9.00,0.14,15.52,258.54,15.67,286.41
AOML_Explorer,Ex0722B,146.187,26052007,4:29:19,39.151,-72.196,360.73,-9.00,1020.69,1018.00,14.90,15.17,33.704,0.879,100.878,31.032,1020.691,133.600,20.600,79.000,11.323,360.18,2,-9.00,9,-9.00,0.15,14.43,262.44,16.1,284.20
AOML_Explorer,Ex0722B,146.189,26052007,4:31:52,39.141,-72.183,360.18,-9.00,1020.58,1017.50,15.26,15.50,33.907,0.925,100.862,31.021,1020.584,133.500,20.800,80.000,11.838,358.96,2,-9.00,9,-9.00,0.13,14.95,262.07,16.54,281.34
AOML_Explorer,Ex0722B,146.191,26052007,4:34:25,39.130,-72.169,359.15,-9.00,1020.70,1017.90,15.59,16.21,33.950,0.894,100.795,31.013,1020.700,133.800,20.900,83.000,11.838,363.56,2,-9.00,9,-9.00,0.12,15.38,263.88,16.92,276.81
AOML_Explorer,Ex0722B,146.198,26052007,4:44:37,39.090,-72.115,353.11,-9.00,1020.53,1018.10,14.68,13.81,33.517,0.933,100.810,30.974,1020.533,134.000,21.100,79.000,13.382,336.24,2,-9.00,9,-9.00,0.18,16.03,258.06,17.06,292.32
AOML_Explorer,Ex0722B,146.199,26052007,4:47:10,39.079,-72.101,349.94,-9.00,1020.57,1018.20,14.62,13.95,33.525,0.861,100.808,30.960,1020.572,133.800,21.100,73.000,14.412,336.06,2,-9.00,9,-9.00,0.17,15.88,251.86,17.21,291.88
AOML_Explorer,Ex0722B,146.201,26052007,4:49:43,39.069,-72.087,348.81,-9.00,1020.58,1018.30,14.68,14.23,33.547,0.852,100.748,30.952,1020.575,133.800,21.300,77.000,14.412,338.07,2,-9.00,9,-9.00,0.16,16.61,254.70,17.22,289.76
AOML_Explorer,Ex0722B,146.203,26052007,4:52:16,39.059,-72.073,348.24,-9.00,1020.46,1018.10,14.78,14.92,33.750,0.829,100.918,30.937,1020.460,134.100,21.300,79.000,14.412,345.75,2,-9.00,9,-9.00,0.14,16.94,256.35,17,284.36
AOML_Explorer,Ex0722B,146.205,26052007,4:54:49,39.048,-72.059,348.80,-9.00,1020.59,1018.30,14.92,15.17,33.916,0.928,100.873,30.926,1020.591,134.000,21.300,72.000,13.382,347.96,2,-9.00,9,-9.00,0.16,15.08,254.28,16.87,282.23
AOML_Explorer,Ex0722B,146.207,26052007,4:57:22,39.038,-72.046,347.85,-9.00,1020.54,1018.40,15.30,15.06,34.146,0.898,100.760,30.918,1020.542,133.900,21.300,68.000,14.412,339.99,2,-9.00,9,-9.00,0.18,15.05,248.68,16.55,284.92
AOML_Explorer,Ex0722B,146.208,26052007,4:59:55,39.027,-72.032,346.46,-9.00,1020.27,1018.20,15.62,14.06,34.057,0.868,100.787,30.911,1020.271,133.800,21.200,74.000,14.412,320.33,2,-9.00,9,-9.00,0.21,16.04,252.56,15.97,294.50
AOML_Explorer,Ex0722B,146.223,26052007,5:21:40,38.936,-71.919,344.13,-9.00,1020.09,1018.40,13.99,12.61,33.286,0.872,100.885,30.907,1020.094,137.400,21.300,63.000,14.412,320.95,2,-9.00,9,-9.00,0.23,14.16,248.58,14.59,305.76
AOML_Explorer,Ex0722B,146.225,26052007,5:24:13,38.925,-71.905,346.63,-9.00,1020.07,1018.40,13.91,12.58,33.296,0.885,100.872,30.900,1020.067,137.300,21.300,63.000,14.412,323.98,2,-9.00,9,-9.00,0.26,14.18,248.37,14.68,306.78
AOML_Explorer,Ex0722B,146.227,26052007,5:26:46,38.914,-71.893,347.70,-9.00,1020.17,1018.30,13.87,12.94,33.359,0.867,100.744,30.894,1020.166,137.700,21.300,64.000,14.926,330.41,2,-9.00,9,-9.00,0.26,14.64,247.82,14.8,305.69
AOML_Explorer,Ex0722B,146.229,26052007,5:29:19,38.903,-71.880,346.17,-9.00,1020.25,1018.40,13.78,12.97,33.460,0.865,100.916,30.886,1020.253,137.800,21.300,61.000,15.441,330.63,2,-9.00,9,-9.00,0.27,14.47,244.19,14.86,306.02
AOML_Explorer,Ex0722B,146.647,26052007,15:31:52,36.311,-68.859,351.53,-9.00,1022.90,1020.50,22.38,21.89,36.698,0.991,100.301,31.127,1022.899,136.800,20.300,77.000,6.691,337.62,2,-9.00,9,-9.00,0.03,10.90,280.56,22.1,239.19
AOML_Explorer,Ex0722B,146.649,26052007,15:34:25,36.300,-68.846,350.97,-9.00,1022.98,1020.40,22.28,21.65,36.695,1.010,100.617,31.146,1022.982,137.300,20.300,76.000,6.691,335.32,2,-9.00,9,-9.00,0.04,10.71,280.52,22.06,239.53
AOML_Explorer,Ex0722B,146.651,26052007,15:36:58,36.290,-68.834,350.61,-9.00,1022.92,1020.30,22.09,21.30,36.758,1.051,100.518,31.166,1022.923,137.100,20.300,78.000,5.147,333.03,2,-9.00,9,-9.00,0.04,10.44,288.84,22.07,240.27
AOML_Explorer,Ex0722B,146.652,26052007,15:39:31,36.279,-68.822,350.01,-9.00,1022.85,1020.20,21.87,21.00,36.737,1.016,100.433,31.182,1022.853,136.100,20.300,80.000,6.176,331.30,2,-9.00,9,-9.00,0.03,11.05,283.02,21.98,240.99
AOML_Explorer,Ex0722B,146.654,26052007,15:42:04,36.269,-68.809,349.39,-9.00,1022.81,1020.50,21.59,20.78,36.711,1.024,100.334,31.205,1022.811,131.900,20.000,59.000,6.176,331.59,2,-9.00,9,-9.00,0.03,8.76,274.93,22.16,241.87
AOML_Explorer,Ex0722B,146.656,26052007,15:44:37,36.260,-68.797,348.29,-9.00,1022.86,1020.50,21.31,20.73,36.713,1.010,100.337,31.224,1022.859,132.000,19.900,67.000,6.691,333.97,2,-9.00,9,-9.00,0.03,9.75,273.03,21.97,242.33
AOML_Explorer,Ex0722B,146.658,26052007,15:47:10,36.250,-68.784,346.75,-9.00,1022.73,1020.40,21.09,20.73,36.693,1.015,99.883,31.243,1022.730,132.000,20.000,65.000,7.206,335.48,2,-9.00,9,-9.00,0.03,9.71,270.08,21.86,242.39
AOML_Explorer,Ex0722B,146.660,26052007,15:49:43,36.241,-68.771,344.70,-9.00,1022.77,1020.40,21.02,20.64,36.695,1.075,100.535,31.263,1022.770,132.100,19.900,66.000,7.206,333.42,2,-9.00,9,-9.00,0.04,9.87,270.29,21.79,243.16
AOML_Explorer,Ex0722B,146.661,26052007,15:52:16,36.231,-68.758,343.65,-9.00,1022.76,1020.40,20.97,20.77,36.672,1.009,100.411,31.281,1022.760,132.100,19.900,64.000,7.206,334.71,2,-9.00,9,-9.00,0.04,9.58,269.56,21.7,242.89
AOML_Explorer,Ex0722B,146.663,26052007,15:54:49,36.222,-68.745,343.22,-9.00,1022.77,1020.30,20.91,20.76,36.709,1.040,100.240,31.298,1022.766,132.100,19.900,62.000,7.206,335.01,2,-9.00,9,-9.00,0.03,9.32,269.27,21.65,243.08
AOML_Explorer,Ex0722B,146.665,26052007,15:57:22,36.212,-68.732,342.63,-9.00,1022.74,1020.30,20.96,20.64,36.724,1.009,100.158,31.314,1022.737,132.800,19.900,65.000,7.206,332.12,2,-9.00,9,-9.00,0.03,9.62,270.35,21.59,243.74
AOML_Explorer,Ex0722B,146.667,26052007,15:59:55,36.203,-68.719,342.55,-9.00,1022.64,1020.30,20.97,20.56,36.705,1.040,100.163,31.329,1022.640,131.100,19.900,63.000,7.206,330.79,2,-9.00,9,-9.00,0.03,9.45,268.79,21.52,244.41
AOML_Explorer,Ex0722B,146.682,26052007,16:21:40,36.123,-68.611,343.03,-9.00,1022.62,1020.20,21.66,21.68,36.682,1.118,101.308,31.496,1022.623,132.800,19.700,71.000,7.721,336.70,2,-9.00,9,-9.00,0.03,10.45,268.29,21.34,240.33
AOML_Explorer,Ex0722B,146.683,26052007,16:24:13,36.113,-68.598,343.55,-9.00,1022.76,1020.20,21.64,21.64,36.720,1.101,100.905,31.510,1022.763,132.500,19.800,64.000,7.206,337.06,2,-9.00,9,-9.00,0.03,9.47,269.36,21.32,240.46
AOML_Explorer,Ex0722B,146.685,26052007,16:26:46,36.104,-68.586,343.51,-9.00,1022.64,1020.20,21.73,21.82,36.671,1.124,100.549,31.517,1022.645,132.800,19.600,69.000,7.206,338.24,2,-9.00,9,-9.00,0.03,10.00,270.68,21.34,239.94
AOML_Explorer,Ex0722B,146.687,26052007,16:29:19,36.094,-68.573,344.30,-9.00,1022.68,1020.20,21.73,21.98,36.660,1.106,100.472,31.526,1022.678,132.800,19.600,73.000,7.206,341.16,2,-9.00,9,-9.00,0.03,10.41,271.74,21.32,239.30
AOML_Explorer,Ex0722B,146.689,26052007,16:31:52,36.085,-68.561,344.55,-9.00,1022.62,1020.10,21.84,22.08,36.661,1.096,100.778,31.535,1022.619,133.400,19.600,70.000,6.176,341.20,2,-9.00,9,-9.00,0.04,9.71,276.85,21.31,238.96
AOML_Explorer,Ex0722B,146.691,26052007,16:34:25,36.075,-68.548,345.00,-9.00,1022.58,1020.20,21.97,22.13,36.665,1.063,100.600,31.543,1022.576,133.100,19.600,77.000,7.206,340.46,2,-9.00,9,-9.00,0.03,10.86,272.62,21.32,238.76
AOML_Explorer,Ex0722B,146.692,26052007,16:36:58,36.066,-68.536,345.89,-9.00,1022.59,1020.10,22.08,22.14,36.674,1.066,100.423,31.552,1022.586,132.700,19.600,79.000,6.691,339.92,2,-9.00,9,-9.00,0.03,10.87,275.42,21.36,238.76
AOML_Explorer,Ex0722B,146.694,26052007,16:39:31,36.057,-68.523,346.64,-9.00,1022.55,1020.10,22.14,22.09,36.688,1.070,100.464,31.562,1022.552,132.600,19.700,74.000,6.691,339.00,2,-9.00,9,-9.00,0.03,10.39,274.23,21.37,239.11
AOML_Explorer,Ex0722B,146.696,26052007,16:42:04,36.047,-68.511,347.23,-9.00,1022.58,1020.10,22.16,21.96,36.711,1.086,100.516,31.571,1022.578,132.600,19.800,72.000,7.206,337.64,2,-9.00,9,-9.00,0.03,10.38,271.69,21.35,239.28
AOML_Explorer,Ex0722B,146.698,26052007,16:44:37,36.038,-68.498,347.63,-9.00,1022.54,1020.10,22.13,21.57,36.792,1.073,100.720,31.579,1022.544,132.400,19.800,69.000,6.691,333.06,2,-9.00,9,-9.00,0.03,9.88,273.65,21.35,240.17
AOML_Explorer,Ex0722B,146.699,26052007,16:47:10,36.028,-68.485,347.54,-9.00,1022.52,1020.00,22.04,21.33,36.750,1.083,100.878,31.594,1022.519,132.800,19.700,67.000,6.691,331.05,2,-9.00,9,-9.00,0.03,9.62,272.83,21.36,240.55
AOML_Explorer,Ex0722B,146.701,26052007,16:49:43,36.019,-68.473,347.38,-9.00,1022.49,1020.00,21.79,21.38,36.717,1.132,100.423,31.605,1022.491,132.000,19.800,76.000,6.176,334.99,2,-9.00,9,-9.00,0.04,10.48,276.93,21.35,240.25
AOML_Explorer,Ex0722B,146.703,26052007,16:52:16,36.010,-68.460,346.19,-9.00,1022.44,1020.00,21.55,21.34,36.733,1.123,100.462,31.618,1022.442,132.000,19.800,84.000,5.662,336.66,2,-9.00,9,-9.00,0.04,11.07,281.24,21.34,240.75